NOAA 16 DEB, 42356

Orbit data source: Space-Track

NOAA 16 DEB, 42356 is space debris in SSO originally from a launch on Thu, 21 Sep 2000 UTC launched from the Air Force Western Test Range (AFWTR). Debris objects in space refer to the collection of defunct objects orbiting the Earth. Examples of debris include non-operational satellites, rocket bodies, and fragments generated from explosions, collisions, or faulty payload assembly.

Loading next visibility...
Identifier
42356, 2000-055QY
Orbit
SSO
Country
Flag of USUS
Related business
Manufacturer
Unknown
Mission
Spacecraft
Bus & Motor
Unknown
Mass
Unknown
Launch date (UTC)
2000-09-21 (26 years ago)
Launch vehicle
Unknown
Launch site
Air Force Western Test Range (AFWTR)
Object type
Payload
Rocket body
Debris
Shape & HBR
Unknown shape, 0.1 m
Radar Cross Section
Medium (>0.1 m² and <1 m²)

Expand to show TLE details & history
Last TLE update: 2 days ago

TLE from 2 days ago
0 NOAA 16 DEB
1 42356U 00055QY  26171.32340184  .00009219  00000-0  19262-2 0  9995
2 42356  98.9148 347.9109 0020486 184.0064 176.0972 14.59962893538078
Epoch: 2026-06-20T07:45Z
TLE epoch observation values (Epoch: 2026-06-20T07:45:41.918Z)
Latitude
-0.00015°
Longitude
-37.05341°
Altitude
710.712 km
Speed
7.493 km/s
True Right ascension
23h 11m 38s
True Declination
0° 00' 01"
Sunlit
Object was in daylight at epoch
Visualization orbit readout
Latitude
Unknown
Longitude
Unknown
Altitude
Unknown
Speed
Unknown
Apparent Right ascension
Unknown
Apparent Declination
Unknown
Sunlit
N/A
Visualization observer readout
Local Sidereal Time
21:40:33
Azimuth
Unknown
Elevation
Unknown
Doppler factor
Unknown
Orbital elements
Apogee altitude
704.89 km
Perigee altitude
675.929 km
Semi-major axis
7,068.546 km
Eccentricity
0.00205
Inclination
98.9148°
RAAN
347.9109°
Arg. of periapsis
184.0064°
True anomaly
176.11314°
Mean anomaly
176.0972°
Eccentric anomaly
176.10517°
Mean motion
3.65214 °/min
Orbital period
98.57 mins
BSTAR
0.0019262
Loading maneuver chart data...
Computing Atmospheric mass density...
Loading historical data...
Loading historical data...
Loading historical data...
Loading historical data...
Loading historical data...
Loading historical data...
Loading historical data...

Documentation

Showing up to 5 results
|